Regional Weather Roundup
Issued by NWS

Home | Current Version | Previous Version | Graphics & Text | Print | Product List | Glossary On
Versions: 1 2 3 4 5 6 7 8 9 10 11 12 13 14 15 16 17 18 19 20 21 22 23 24 25 26 27 28 29 30 31 32 33 34 35 36 37 38 39 40 41 42 43 44 45 46 47 48 49 50
000
ASUS43 KLMK 171810
RWRKY
KENTUCKY REGIONAL WEATHER ROUNDUP
NATIONAL WEATHER SERVICE LOUISVILLE KY
100 PM EST SUN DEC 17 2017

NOTE "FAIR" INDICATES FEW OR NO CLOUDS BELOW 12,000 FEET
WITH NO SIGNIFICANT WEATHER AND/OR OBSTRUCTIONS TO VISIBILITY.

KYZ001>023-026-027-061>063-070>075-171900-
WESTERN AND SOUTH CENTRAL KENTUCKY

CITY           SKY/WX    TMP DP  RH WIND       PRES   REMARKS
PADUCAH        CLOUDY    47  40  76 S6        30.10F
HENDERSON      CLOUDY    44  39  82 S7        30.13F
OWENSBORO      LGT RAIN  44  39  82 S12       30.14F
HOPKINSVILLE   CLOUDY    43  41  93 CALM      30.13F FOG
BOWLING GREEN  CLOUDY    45  40  82 NW3       30.17S
GLASGOW        RAIN      44  37  74 W7        30.16R
$$

KYZ024-025-028>034-038-045-046-053-171900-
NORTH CENTRAL KENTUCKY

CITY           SKY/WX    TMP DP  RH WIND       PRES   REMARKS
LOUISVILLE/SDF LGT RAIN  47  34  60 SW8       30.16R
LOUISVILLE/LOU LGT RAIN  45  37  73 SW7       30.17R
FORT KNOX      LGT RAIN  45  34  65 SW7       30.14S
$$

KYZ035>037-039>044-047>052-055>060-089>105-171900-
NORTHEAST KENTUCKY

CITY           SKY/WX    TMP DP  RH WIND       PRES   REMARKS
LEXINGTON      CLOUDY    45  32  60 S8        30.13R
COVINGTON      CLOUDY    44  33  65 SW8       30.13R
FRANKFORT      CLOUDY    46  31  55 SW5       30.13S
$$

KYZ054-064>069-076>088-106>120-171900-
SOUTHEAST KENTUCKY

CITY           SKY/WX    TMP DP  RH WIND       PRES   REMARKS
JACKSON        CLOUDY    44  32  62 CALM      30.13F
LONDON         LGT RAIN  43  32  65 S6        30.14F
SOMERSET       CLOUDY    41  34  75 S3        30.13F
MIDDLESBORO    DRIZZLE   40  33  75 S5        30.18F
MONTICELLO     LGT RAIN  44  35  70 SE7       30.13F
$$





USA.gov is the U.S. government's official web portal to all federal, state and local government web resources and services.